Marianna, FL

4:33 PM CDT on August 19, 2017 (GMT -0500)
Marianna Municipal

Weather History for KMAI - March, 2014

Change the Weather History Date:

Saturday, March 29, 2014

  Actual Average Record
Temperature  
Mean Temperature 65 °F 63 °F  
Max Temperature 77 °F 75 °F 89 °F (2007)
Min Temperature 53 °F 50 °F 38 °F (2013)
Degree Days  
Heating Degree Days 0    
Month to date heating degree days 210  
Since 1 July heating degree days 1670  
Cooling Degree Days 0    
Month to date cooling degree days 3  
Year to date cooling degree days 12  
Growing Degree Days 15 (Base 50)    
Moisture  
Dew Point 57 °F    
Average Humidity 75    
Maximum Humidity 100    
Minimum Humidity 49    
Precipitation  
Precipitation 0.54 in 0.22 in 0.54 in (2014)
Month to date precipitation 7.86 5.08  
Year to date precipitation 15.19 15.06  
Sea Level Pressure  
Sea Level Pressure 29.94 in    
Wind  
Wind Speed 11 mph (WNW)    
Max Wind Speed 22 mph    
Max Gust Speed 29 mph    
Visibility 7 miles    
Events Fog , Rain , Thunderstorm    
T = Trace of Precipitation, MM = Missing Value Source: NWS Daily Summary

Daily Weather History Graph

Daily Weather History Graph

Search for Another Location

Airport or City:

Trip Planner

Search our weather history database for the weather conditions in past years. The results will help you decide how hot, cold, wet, or windy it might be!

Date:

Astronomy

Mar. 29, 2014 Rise Set
Actual Time 6:33 AM CDT 6:57 PM CDT
Civil Twilight 6:09 AM CDT 7:22 PM CDT
Nautical Twilight 5:40 AM CDT 7:50 PM CDT
Astronomical Twilight 5:12 AM CDT 8:19 PM CDT
Moon 5:37 AM CDT (3/29) 6:04 PM CDT (3/29)
Length of Visible Light 13h 13m
Length of Day
12h 24m
Waning Crescent, 2% of the Moon is Illuminated
Mar 29
Waning Crescent
Mar 30
New
Apr 7
First Quarter
Apr 15
Full
Apr 22
Last Quarter

Hourly Weather History & Observations

Time (CDT) Temp. Dew Point Humidity Pressure Visibility Wind Dir Wind Speed Gust Speed Precip Events Conditions
12:28 AM 62.1 °F 61.0 °F 96% 29.94 in 10.0 mi Calm Calm - N/A   Partly Cloudy
12:53 AM 60.1 °F 60.1 °F 100% 29.92 in 10.0 mi ESE 3.5 mph - N/A   Clear
1:36 AM 59.0 °F 59.0 °F 100% 29.93 in 2.5 mi Calm Calm - N/A   Clear
1:43 AM 59.0 °F 59.0 °F 100% 29.92 in 9.0 mi ESE 4.6 mph - N/A   Clear
1:53 AM 59.0 °F 59.0 °F 100% 29.91 in 10.0 mi ESE 3.5 mph - N/A   Clear
2:03 AM 57.0 °F 57.0 °F 100% 29.91 in 1.8 mi ESE 4.6 mph - N/A   Clear
2:12 AM 59.0 °F 59.0 °F 100% 29.91 in 4.0 mi Calm Calm - N/A   Clear
2:21 AM 57.0 °F 57.0 °F 100% 29.91 in 2.5 mi Calm Calm - N/A   Partly Cloudy
2:29 AM 57.0 °F 57.0 °F 100% 29.90 in 1.2 mi Calm Calm - N/A   Partly Cloudy
2:43 AM 55.9 °F 55.9 °F 100% 29.90 in 0.8 mi SSW 4.6 mph - N/A   Mist
2:53 AM 55.9 °F 55.9 °F 100% 29.88 in 0.5 mi Calm Calm - N/A Fog Fog
3:16 AM 57.0 °F 57.0 °F 100% 29.88 in 1.2 mi Calm Calm - N/A   Mostly Cloudy
3:18 AM 57.9 °F 57.9 °F 100% 29.88 in 3.0 mi SE 3.5 mph - N/A   Mostly Cloudy
3:53 AM 57.0 °F 57.0 °F 100% 29.88 in 10.0 mi Calm Calm - N/A   Overcast
4:40 AM 59.0 °F 59.0 °F 100% 30.01 in 8.0 mi WNW 19.6 mph - 0.02 in Rain , Thunderstorm Light Thunderstorms and Rain
4:53 AM 60.1 °F 60.1 °F 100% 30.02 in 2.0 mi West 9.2 mph - 0.13 in Rain , Thunderstorm Heavy Thunderstorms and Rain
5:06 AM 60.1 °F 60.1 °F 100% 29.98 in 3.0 mi North 9.2 mph - 0.06 in Rain , Thunderstorm Heavy Thunderstorms and Rain
5:20 AM 60.1 °F 60.1 °F 100% 29.99 in 3.0 mi North 9.2 mph - 0.13 in Rain Heavy Rain
5:53 AM 60.1 °F 60.1 °F 100% 29.99 in 7.0 mi NNW 15.0 mph - 0.25 in Rain Rain
6:07 AM 60.1 °F 60.1 °F 100% 30.00 in 7.0 mi NW 11.5 mph - 0.02 in Rain Light Rain
6:53 AM 60.1 °F 60.1 °F 100% 29.96 in 5.0 mi ESE 6.9 mph - 0.13 in Rain Rain
7:53 AM 60.1 °F 60.1 °F 100% 29.92 in 10.0 mi SSE 5.8 mph - 0.03 in Rain Light Rain
8:53 AM 61.0 °F 61.0 °F 100% 29.91 in 10.0 mi WNW 5.8 mph - 0.00 in   Clear
9:03 AM 61.0 °F 61.0 °F 100% 29.92 in 10.0 mi WNW 6.9 mph - N/A   Partly Cloudy
9:53 AM 66.9 °F 64.0 °F 90% 29.92 in 10.0 mi WSW 6.9 mph - N/A   Clear
10:53 AM 70.0 °F 62.1 °F 76% 29.92 in 10.0 mi SW 17.3 mph - N/A   Partly Cloudy
11:53 AM 73.0 °F 60.1 °F 64% 29.90 in 10.0 mi West 16.1 mph - N/A   Mostly Cloudy
12:53 PM 73.9 °F 57.0 °F 55% 29.90 in 10.0 mi West 21.9 mph 27.6 mph N/A   Partly Cloudy
1:53 PM 75.9 °F 55.9 °F 50% 29.89 in 10.0 mi West 17.3 mph 26.5 mph N/A   Scattered Clouds
2:53 PM 73.0 °F 55.0 °F 53% 29.89 in 10.0 mi WNW 17.3 mph 28.8 mph N/A   Scattered Clouds
3:53 PM 72.0 °F 54.0 °F 53% 29.90 in 10.0 mi WNW 17.3 mph 25.3 mph N/A   Mostly Cloudy
4:53 PM 73.0 °F 54.0 °F 51% 29.90 in 10.0 mi NW 13.8 mph - N/A   Clear
5:53 PM 72.0 °F 54.0 °F 53% 29.91 in 10.0 mi WNW 11.5 mph - N/A   Clear
6:53 PM 66.9 °F 53.1 °F 61% 29.94 in 10.0 mi NW 20.7 mph 27.6 mph N/A   Clear
7:53 PM 63.0 °F 50.0 °F 63% 29.97 in 10.0 mi NW 9.2 mph - N/A   Clear
8:53 PM 62.1 °F 48.0 °F 60% 30.01 in 10.0 mi NW 11.5 mph - N/A   Clear
9:53 PM 60.1 °F 46.9 °F 62% 30.04 in 10.0 mi NW 9.2 mph - N/A   Clear
10:53 PM 57.9 °F 46.9 °F 67% 30.07 in 10.0 mi NNW 13.8 mph - N/A   Clear
11:53 PM 55.9 °F 43.0 °F 62% 30.09 in 10.0 mi NNW 15.0 mph - N/A   Clear